Regional Weather Roundup
Issued by NWS Northern Indiana

Home | Current Version | Previous Version | Graphics & Text | Print | Product List | Glossary On
Versions: 1 2 3 4 5 6 7 8 9 10 11 12 13 14 15 16 17 18 19 20 21 22 23 24 25 26 27 28 29 30 31 32 33 34 35 36 37 38 39 40 41 42 43 44 45 46 47 48 49 50
000
ASUS43 KIWX 230400
RWRIWX

KIWX WEATHER ROUNDUP
NATIONAL WEATHER SERVICE NORTHERN INDIANA
1100 PM EST SUN JAN 22 2017

NOTE: "FAIR" INDICATES FEW OR NO CLOUDS BELOW 12,000 FEET WITH NO
SIGNIFICANT WEATHER AND/OR OBSTRUCTIONS TO VISIBILITY.

* THESE STATIONS ARE NOT UNDER NWS QUALITY CONTROL. THEY ALSO MAY NOT
  REPORT WEATHER SUCH AS PRECIPITATION OR FOG.

INZ001>027-230500-
NORTHERN INDIANA

CITY           SKY/WX    TMP DP  RH WIND       PRES   REMARKS
SOUTH BEND     FOG       40  40 100 N6        29.65S VSB 3/4
GOSHEN         FOG       43  41  93 N7        29.62F VSB 1/2
FORT WAYNE     CLOUDY    49  46  90 NE13      29.59S FOG
PERU/GRISSOM   CLOUDY    46  46 100 N8        29.57F

$$
INZ028>050-230500-
CENTRAL INDIANA

CITY           SKY/WX    TMP DP  RH WIND       PRES   REMARKS
LAFAYETTE      CLOUDY    43  43 100 N8        29.60S FOG
KOKOMO*        CLOUDY    48  47  96 N13       29.58F FOG
MUNCIE*        CLOUDY    50  47  89 NE15      29.55S
INDIANAPOLIS   CLOUDY    51  47  86 N16       29.52S

$$
MIZ043>046-050>051-056>058-064>065-071>073-077>080-230500-
SOUTHWEST LOWER MICHIGAN

CITY           SKY/WX    TMP DP  RH WIND       PRES   REMARKS
BATTLE CREEK   FOG       41  41 100 NE8       29.65S VSB 1
BENTON HARBOR  CLOUDY    42  40  92 CALM      29.66S FOG
COLDWATER*     FOG       43  43 100 NE3       29.63S VSB 1/2
HILLSDALE*     FOG       45  45 100 NE3       29.62S VSB 3/4
HOLLAND        CLOUDY    39  38  96 CALM      29.68R
GRAND RAPIDS   FOG       42  40  92 N3        29.67R VSB 1/2
KALAMAZOO      CLOUDY    42  40  92 N7        29.65S FOG
STURGIS*       FOG       42  42 100 NE5       29.62S VSB 1/2
THREE RIVERS*  CLOUDY    41  41 100 NE3       29.65R FOG

$$
OHZ001>008-015>018-024>025-230500-
NORTHWEST OHIO

CITY           SKY/WX    TMP DP  RH WIND       PRES   REMARKS
DEFIANCE       FOG       45  45 100 NE12      29.61R VSB 3/4
FINDLAY        FOG       43  40  89 N13       29.57R VSB 3/4
TOLEDO EXPRESS CLOUDY    41  41 100 NE15      29.61S FOG
TOLEDO METCALF CLOUDY    37  37 100 NE9       29.63S FOG
LIMA           FOG       46  46 100 N9        29.54F VSB 1/2

$$
AND FOR LAKE MICHIGAN COASTAL AND OPEN LAKE BUOY OBSERVATIONS

STATION/POSITION TEMP    WIND        PRES    VSBY  WAVE
                 AIR SEA DIR/SP/G                  HT/PER
                 (F)     (DEG/KT/KT) (MB)    (MI)  (FT/S)
CALUMET HARBOR    35     330/  7/ 10 1004.6R
MICHIGAN CITY     35      50/  6/  7   N/A
BURNS HARBOR      36      10/  9/ 10 1005.4R
SAINT JOSEPH      39      10/  3/  3 1005.8

$$
&&




USA.gov is the U.S. government's official web portal to all federal, state and local government web resources and services.